Theta_e
302 301 301 301 301 301 302 303 304 304 307 308 310 312 313 314 315 314 316 325 316 309 311 313 315 311 312 313 308 316 311 312 309 303 302 303 302 304 304 305 303 302 302 299 300 296 293 309 306 297 306 311 310 309
303 303 303 302 301 301 301 302 302 303 304 307 308 310 312 314 315 314 312 320 323 312 310 317 317 319 317 316 312 317 316 313 312 307 308 307 304 306 305 299 309 301 305 303 305 301 314 312 312 312 312 310 309 309
303 304 304 303 303 303 302 301 301 303 303 304 306 308 310 312 313 314 314 318 316 312 309 309 308 315 320 319 320 310 315 319 317 322 312 309 305 307 301 302 304 307 310 303 304 306 306 309 312 312 312 311 311 310
302 302 303 303 303 303 303 302 301 302 303 303 305 307 309 311 312 313 313 317 315 311 304 308 319 315 320 321 319 319 317 320 321 318 310 307 303 311 304 305 304 306 307 305 304 307 308 309 311 311 311 311 310 311
302 302 302 302 302 302 303 303 302 301 302 303 304 306 308 310 311 312 314 316 318 311 304 307 316 318 319 317 316 318 319 317 312 309 307 304 308 308 309 307 303 308 308 304 303 311 309 310 311 311 309 309 310 309
303 303 302 302 302 302 302 302 303 301 301 302 304 305 308 309 309 311 304 313 317 317 307 301 314 315 317 316 314 314 315 313 311 308 307 309 317 309 302 302 310 313 313 316 311 312 313 312 311 312 310 311 310 308
303 303 303 302 302 302 302 302 303 303 301 301 303 304 306 308 307 305 303 307 309 314 307 301 301 308 315 314 313 312 317 312 310 309 308 308 309 309 304 301 308 312 311 312 313 312 309 310 308 312 311 311 310 310
302 302 303 303 302 302 302 302 303 303 301 300 301 303 305 306 306 304 310 309 310 308 309 299 301 306 314 307 307 313 309 310 310 308 309 307 308 308 302 309 310 311 311 311 311 313 312 312 312 310 311 309 307 305
301 302 303 303 301 302 302 302 303 303 301 300 301 302 305 304 304 308 309 309 308 304 296 299 298 297 311 308 309 310 310 304 310 305 306 307 305 302 306 309 308 309 310 310 311 311 311 309 309 310 308 307 304 303
301 302 302 302 301 302 302 302 303 302 301 300 301 301 297 303 310 310 307 300 299 299 298 294 304 300 307 306 305 306 307 303 300 304 308 305 303 311 313 313 312 311 310 311 309 308 308 309 309 308 306 305 305 305
301 301 302 301 301 302 302 302 303 301 300 299 298 297 308 310 308 305 297 293 293 290 296 299 301 299 309 302 302 306 301 303 297 301 302 301 302 308 312 312 314 315 314 313 314 313 313 312 310 307 305 305 305 305
301 302 302 301 301 302 302 303 303 300 300 299 298 307 306 302 297 291 288 291 289 291 301 300 301 304 306 310 303 302 299 301 295 306 301 298 305 312 311 312 313 315 315 312 312 311 312 310 309 306 305 305 306 306
301 302 302 301 301 301 302 303 303 302 301 302 301 298 296 295 288 285 285 287 290 299 304 303 301 305 306 306 303 301 296 297 305 299 298 302 310 311 313 314 313 314 314 313 311 312 311 308 308 307 306 307 307 307
301 302 302 301 301 302 302 303 302 301 297 293 292 285 288 285 289 292 293 295 301 305 305 305 304 301 302 298 301 296 300 301 295 295 296 303 310 310 314 313 313 312 313 311 311 310 308 307 306 307 307 308 308 306
302 302 301 300 301 302 302 302 302 301 295 289 291 285 288 294 297 299 299 303 305 306 307 304 302 302 299 297 299 299 295 294 297 297 302 308 313 314 313 314 313 312 313 312 311 308 307 307 306 306 308 309 308 308
301 300 299 301 302 302 302 301 300 299 295 290 288 288 294 293 293 296 300 301 307 307 309 302 296 295 294 297 295 294 294 293 298 304 308 313 314 316 315 315 314 313 312 311 310 309 308 307 307 308 309 309 309 308
300 297 301 301 302 302 301 298 296 292 291 290 288 295 295 296 295 296 298 302 310 305 298 293 292 292 299 296 295 299 297 301 306 308 309 318 317 315 315 313 312 311 311 312 311 311 309 309 309 308 307 309 309 309
297 300 302 301 301 299 296 296 291 291 286 288 289 292 295 296 296 298 300 306 303 302 300 293 291 295 295 294 296 302 305 309 310 311 314 317 319 316 313 312 312 312 312 312 312 311 310 309 308 309 308 308 308 310
299 301 301 301 299 296 292 293 293 286 289 292 293 294 294 297 301 302 304 305 306 306 299 294 288 291 298 303 303 306 308 309 308 312 316 318 318 314 314 313 312 312 312 313 313 310 310 311 309 308 306 307 306 307
300 301 301 301 300 294 289 291 298 291 289 292 293 293 294 295 297 300 302 304 303 300 295 290 292 297 300 304 308 308 310 312 311 310 310 314 315 316 313 312 311 313 312 313 311 304 308 306 307 308 308 306 306 305
297 299 300 300 296 293 289 290 292 293 292 291 294 294 293 295 295 297 299 304 299 296 294 297 299 303 305 306 308 309 309 312 312 311 310 310 312 311 312 312 313 310 309 308 307 304 300 304 305 308 308 307 307 306
298 299 296 296 291 292 291 294 293 297 294 294 294 294 292 292 294 297 302 297 296 298 300 301 302 303 304 303 306 309 313 311 313 309 304 306 310 310 309 309 309 307 306 306 305 305 305 307 308 307 308 307 305 305
298 297 295 293 288 289 287 296 291 292 287 291 293 290 290 292 295 302 295 298 299 303 303 303 304 307 305 307 308 309 310 310 308 310 310 310 311 311 310 310 309 306 305 306 307 306 307 300 303 306 307 307 305 302
299 292 289 289 289 286 292 290 293 291 291 289 288 286 290 293 298 295 292 296 300 303 302 302 305 303 304 305 305 307 309 311 308 310 310 309 308 309 309 308 308 308 308 307 307 307 307 308 301 306 306 304 304 303
287 287 288 284 291 287 287 287 287 288 286 288 286 288 290 296 291 291 291 296 300 299 300 300 303 302 301 302 304 307 311 309 308 306 309 309 308 307 306 307 307 306 307 305 305 306 306 308 307 307 306 305 303 301
282 288 286 288 288 287 287 285 286 287 288 287 288 293 293 290 290 289 294 299 301 300 300 300 300 300 302 304 304 305 306 310 310 307 309 309 308 306 305 303 303 304 308 308 307 307 307 307 306 305 302 298 291 299
282 286 291 295 292 292 290 291 291 289 287 287 290 291 290 286 289 294 301 304 303 304 304 302 303 302 304 305 308 309 310 310 308 309 310 310 309 309 307 305 305 309 312 310 309 307 306 306 305 304 303 302 301 301
287 290 288 291 290 293 289 290 290 289 290 294 294 289 287 289 289 297 300 304 307 306 305 303 305 306 306 307 309 309 309 309 310 311 308 308 308 308 312 310 309 296 306 304 308 309 307 307 306 305 304 302 302 303
290 295 294 290 291 291 290 290 291 292 296 296 293 290 292 295 299 300 303 305 307 306 305 304 305 307 308 308 309 309 309 306 304 301 301 301 302 305 311 310 309 310 310 307 289 297 306 306 306 305 304 303 303 304
291 297 292 291 289 287 290 293 292 297 298 298 297 297 296 298 300 306 306 306 305 305 304 306 305 306 305 305 304 305 305 305 305 303 302 302 304 309 310 310 309 310 309 308 306 303 290 301 297 304 302 302 301 301
295 295 291 291 289 293 294 296 298 298 296 296 298 296 295 298 302 306 307 308 306 304 305 304 305 305 305 304 305 302 302 306 308 308 308 309 310 311 312 312 311 310 308 305 304 303 302 302 302 301 301 301 300 298
296 292 292 289 291 296 297 296 294 293 294 294 294 297 297 294 293 300 304 306 306 304 296 304 307 307 307 307 307 307 299 309 310 310 310 311 312 312 313 313 312 309 305 305 305 304 302 301 301 301 301 300 300 299
294 295 295 293 293 292 295 295 293 292 292 291 292 294 296 293 287 297 304 304 307 306 305 306 307 308 308 309 308 308 304 308 299 289 290 288 287 295 310 314 312 308 306 305 304 303 303 302 301 301 301 300 300 300
Wind_Speed
8 8 8 8 8 9 9 10 11 12 13 13 14 14 13 10 10 7 8 6 5 8 15 16 11 10 11 7 9 4 9 7 7 8 10 10 10 11 9 8 9 10 6 7 9 12 13 10 6 3 3 6 8 11
11 9 9 7 8 8 9 10 11 12 12 13 13 14 14 11 9 6 7 7 3 7 12 17 15 15 13 11 8 7 8 1 9 7 8 6 7 5 5 8 9 11 7 6 5 4 7 5 5 3 4 8 9 10
8 9 11 10 10 8 8 9 10 11 12 13 13 14 14 13 10 6 9 9 6 10 11 15 16 18 15 12 8 5 6 9 2 4 6 4 4 4 7 8 10 8 11 7 4 6 7 3 5 6 7 5 7 9
9 10 9 8 7 8 8 7 10 10 11 12 12 13 13 12 10 6 6 8 7 8 8 11 8 11 7 10 13 12 10 6 6 5 6 6 9 6 8 10 11 10 3 6 8 11 14 12 7 1 3 4 7 9
10 11 11 10 10 10 9 9 8 10 9 11 11 12 13 11 10 5 5 8 9 6 6 9 17 11 8 7 12 14 9 7 7 7 8 9 10 10 9 11 9 10 8 8 8 9 3 5 2 1 2 5 7 9
11 12 12 12 12 11 10 11 11 9 9 11 12 11 12 9 10 2 3 7 11 8 5 7 4 12 13 13 11 11 10 9 8 9 9 10 11 4 7 10 11 14 11 11 9 5 3 3 1 2 5 3 6 8
12 13 13 13 12 11 11 11 12 10 7 9 11 11 11 8 3 3 3 2 9 4 4 6 7 13 12 11 9 8 10 9 9 10 11 11 11 6 10 13 12 16 11 7 5 5 4 6 6 4 2 3 3 7
12 12 14 13 12 12 11 11 12 9 7 7 11 12 12 10 9 5 5 6 1 4 4 6 9 1 11 9 10 9 8 9 9 10 8 11 10 9 10 10 13 16 17 10 10 8 7 5 4 2 3 3 6 8
13 14 13 12 12 12 11 11 12 9 6 8 11 14 7 5 4 2 7 9 3 0 3 4 10 10 9 10 9 8 6 8 6 11 12 9 11 11 10 13 12 14 11 13 10 11 11 9 7 5 2 4 6 8
13 13 12 12 12 12 11 11 11 8 8 8 7 6 5 4 21 14 3 1 1 1 2 4 8 8 6 6 8 6 5 8 7 11 9 13 13 12 12 11 10 8 12 11 11 13 12 10 7 5 1 4 5 6
15 14 13 13 13 12 11 11 10 8 8 5 5 4 6 1 1 2 3 2 3 4 6 6 14 8 6 7 6 6 3 4 9 10 10 7 11 14 18 16 14 12 13 10 9 11 10 8 5 4 3 3 4 7
14 15 15 14 13 12 11 11 12 10 2 5 6 6 2 3 3 4 4 4 6 8 10 9 13 11 2 2 2 4 3 5 7 4 10 17 9 11 13 18 18 15 13 13 13 10 8 7 6 5 3 2 4 5
15 15 15 14 13 12 12 12 14 11 7 6 5 5 4 3 7 8 10 6 6 6 6 8 10 7 2 2 2 5 6 7 5 5 8 7 5 8 10 11 14 16 13 13 14 11 9 9 10 6 2 2 4 5
16 15 15 13 14 13 12 13 14 7 2 4 5 4 7 6 8 9 10 10 9 8 7 10 8 4 4 3 4 6 6 5 8 9 11 7 5 10 9 8 14 16 13 12 11 11 11 8 7 7 3 1 3 6
13 14 13 13 12 14 11 13 12 8 4 4 5 7 9 9 11 10 13 8 4 9 7 7 5 3 4 5 5 6 6 9 7 11 10 7 10 11 8 8 14 15 12 11 10 10 8 6 5 3 2 4 4 4
11 9 11 13 14 13 13 11 8 5 4 4 7 5 10 11 13 13 8 6 6 8 5 3 5 6 6 7 8 10 8 8 7 8 5 6 8 10 9 7 11 12 11 10 9 9 7 5 3 3 3 4 3 3
15 6 15 17 14 14 15 7 5 6 7 5 7 10 12 10 10 10 8 9 1 4 3 2 6 9 7 8 11 10 13 10 8 2 3 6 11 13 12 12 12 12 11 10 8 8 7 5 4 2 4 3 3 4
6 8 15 18 14 9 3 5 3 6 8 7 9 11 12 11 8 11 10 4 1 5 3 3 3 9 7 9 9 11 10 7 5 3 5 7 10 12 11 13 12 12 10 9 8 8 6 4 3 4 2 2 1 3
7 7 13 20 12 6 6 6 6 5 10 8 11 12 12 8 7 11 8 7 4 3 3 2 1 6 9 4 7 7 7 6 6 5 5 7 9 12 12 11 11 10 9 8 7 5 5 4 3 3 3 2 6 6
9 15 15 19 15 3 3 5 5 6 6 7 11 11 13 11 8 10 10 8 6 4 5 4 7 5 8 11 10 9 8 5 8 10 8 7 8 9 10 9 8 9 8 8 6 2 3 4 6 7 3 5 2 6
5 7 11 11 6 2 2 4 6 7 8 9 7 10 11 10 10 10 10 7 7 5 4 7 9 6 4 10 12 11 2 10 6 8 10 9 8 9 8 7 10 8 7 8 8 8 3 3 2 6 6 9 6 8
3 11 4 3 1 4 6 7 6 5 5 6 7 9 8 9 11 11 8 7 6 7 7 8 8 8 4 4 12 12 5 5 5 5 6 12 9 10 9 8 6 6 6 5 4 7 4 4 5 4 9 8 7 6
14 5 3 5 5 6 8 7 6 5 5 4 4 8 11 11 10 6 6 6 5 5 6 8 9 7 3 7 7 7 9 6 4 6 7 8 9 9 8 8 7 7 6 6 4 3 8 5 6 2 8 7 8 7
4 5 5 6 10 6 5 6 4 4 4 5 4 4 5 7 5 6 6 5 4 4 5 8 9 4 2 8 5 6 8 6 9 7 8 7 8 6 6 6 6 4 2 3 5 5 3 6 6 3 9 8 5 6
4 7 5 6 6 5 6 6 6 7 8 6 2 5 4 5 6 7 10 8 7 6 5 4 5 3 1 6 5 6 8 6 7 8 6 6 7 5 4 5 5 4 5 5 3 3 4 5 10 8 7 5 6 7
5 7 7 7 9 9 7 8 9 12 5 2 7 4 3 2 6 5 5 5 6 6 4 5 6 2 2 2 3 4 4 2 6 4 3 3 8 9 8 7 7 6 2 2 1 2 3 12 11 11 11 10 7 7
5 7 8 9 9 6 6 5 2 5 6 4 5 4 3 3 4 3 3 5 6 5 5 5 4 2 1 1 1 3 4 4 4 5 8 2 5 5 5 4 6 8 7 6 0 5 1 12 11 10 9 8 8 7
5 6 10 11 10 2 2 5 4 1 2 2 4 4 4 3 4 3 3 3 4 8 7 7 2 1 2 2 2 3 4 7 10 4 5 6 6 6 12 10 9 16 11 10 6 6 8 8 9 8 7 9 7 6
7 5 6 6 5 3 1 5 5 5 7 5 2 4 4 3 3 5 5 3 3 3 8 6 3 2 2 1 5 6 9 5 7 9 10 7 6 6 9 7 5 6 10 9 14 9 7 7 8 7 5 5 5 4
3 5 0 6 3 3 3 4 2 3 4 4 4 5 4 3 4 5 5 5 2 3 4 11 7 8 7 6 6 6 4 5 5 5 7 5 5 8 9 10 9 6 8 10 10 9 7 9 7 6 7 6 3 4
2 2 3 3 2 2 2 3 4 7 4 5 7 5 3 2 2 6 7 7 6 6 5 7 4 11 9 7 9 8 8 5 3 9 8 5 8 6 6 8 8 7 10 7 6 7 6 6 6 7 9 9 7 9
1 1 4 5 3 5 5 4 3 3 3 3 2 3 3 4 4 6 8 8 5 8 5 7 6 6 8 3 8 9 13 10 10 10 13 9 7 7 8 6 7 8 9 6 7 9 7 7 7 8 7 5 10 13
3 5 6 5 4 5 5 5 4 4 4 3 4 5 4 3 1 3 5 5 6 4 5 8 5 6 9 1 7 11 10 10 10 8 9 8 6 6 1 6 7 7 13 9 12 8 10 9 8 7 4 5 14 15
Wind_Direction
266 274 283 294 304 311 318 332 342 344 340 339 340 337 331 324 322 320 305 310 302 285 287 300 314 286 292 293 291 36 139 189 201 236 251 258 262 267 263 279 263 264 199 233 265 263 269 93 115 195 11 343 307 319
249 259 256 265 286 295 307 316 325 340 336 338 338 337 337 326 313 320 275 254 276 264 286 318 296 294 289 303 320 302 281 185 205 233 221 253 261 277 227 266 285 259 261 288 250 277 152 180 233 160 274 299 314 319
271 274 263 254 251 255 284 303 310 322 334 329 332 333 332 331 316 273 297 318 296 266 271 255 250 242 235 237 246 272 266 341 296 1 327 306 291 296 272 277 280 235 213 219 262 267 276 325 228 231 267 302 346 326
269 277 276 273 299 282 259 278 298 305 321 327 325 328 326 320 320 291 269 284 288 292 280 277 279 210 218 204 219 225 270 302 301 277 269 272 274 269 263 280 279 285 339 238 262 260 265 266 215 256 7 338 305 316
266 270 272 272 278 276 290 283 272 293 305 322 324 324 329 337 331 299 271 274 281 276 315 299 313 253 191 215 235 229 223 240 256 235 239 250 261 270 269 276 257 261 270 263 255 276 302 306 60 21 289 306 332 344
266 264 265 266 268 273 280 274 280 276 289 307 320 320 332 334 336 276 287 219 242 267 280 270 257 224 201 188 221 228 222 224 239 247 249 253 254 248 264 259 262 244 243 255 277 258 233 213 238 264 270 323 354 344
269 258 257 262 263 266 270 275 288 257 263 296 308 314 317 316 310 236 269 341 335 307 237 243 239 240 204 193 219 222 211 229 225 240 238 255 257 200 246 255 270 287 265 264 207 207 205 220 237 207 52 334 320 304
268 274 258 252 257 260 266 270 286 251 255 292 293 303 301 302 276 269 259 201 246 285 246 254 258 251 163 202 222 204 212 209 230 237 245 239 240 226 239 248 251 254 261 235 203 213 213 231 159 196 218 295 306 341
271 274 252 243 251 252 261 268 278 251 258 284 287 289 272 221 227 194 106 90 84 215 315 275 239 223 164 220 217 183 216 229 219 225 230 246 229 226 216 227 245 262 246 242 202 194 201 224 225 222 249 317 358 349
269 263 248 246 248 248 255 266 259 239 252 286 263 201 226 205 106 142 147 80 16 132 194 265 278 254 236 202 217 195 178 230 239 217 234 227 240 252 223 235 237 256 259 213 201 196 204 216 213 210 191 34 0 338
257 256 248 246 245 241 244 255 225 213 245 217 220 224 75 158 187 222 190 200 137 245 209 219 230 264 286 249 213 22 318 265 243 223 226 230 237 232 230 238 233 228 261 195 202 204 192 213 202 118 73 27 349 356
268 249 238 238 238 235 243 234 199 207 257 326 282 268 110 206 199 171 196 195 209 225 187 205 212 201 203 51 114 173 267 256 249 241 217 234 240 230 224 239 220 222 227 192 198 185 179 144 133 129 113 15 0 353
263 253 225 228 229 231 239 223 201 249 338 285 217 220 176 237 213 208 193 201 215 212 181 185 198 160 93 25 247 171 213 248 280 240 245 239 255 220 233 232 204 190 206 187 181 181 160 157 143 158 171 7 357 343
258 237 214 220 222 223 230 206 194 184 192 255 215 231 215 192 232 206 236 218 206 237 187 204 162 133 155 148 255 194 221 264 240 221 228 234 211 257 208 218 169 177 170 173 169 164 162 175 162 142 185 259 6 349
241 201 208 218 221 210 220 191 182 199 186 236 260 224 219 236 243 242 230 207 209 292 213 222 93 158 138 167 229 209 199 230 232 234 231 208 208 239 182 202 161 161 166 152 155 159 172 158 152 159 92 35 338 347
205 191 214 214 199 209 181 172 183 208 212 229 225 253 258 246 233 242 254 268 255 222 226 98 122 231 176 179 198 210 218 226 235 235 204 181 207 160 158 143 128 135 140 143 146 157 160 150 159 116 35 298 336 13
185 236 176 187 186 174 167 181 176 218 221 231 228 221 269 290 281 272 283 218 169 267 243 77 231 189 170 207 205 213 232 251 256 188 197 212 150 150 149 138 139 142 142 141 148 147 152 152 131 198 270 50 37 302
206 197 164 166 158 128 180 195 247 232 226 236 250 251 248 250 249 272 280 258 98 273 118 151 15 253 204 206 196 221 251 244 187 167 127 142 149 144 140 141 145 141 142 145 154 156 164 175 210 233 130 105 269 303
212 157 163 156 151 167 169 206 182 260 224 233 230 243 256 256 276 278 281 287 257 205 104 135 145 278 262 348 347 359 264 174 140 116 109 135 145 144 136 143 141 142 145 152 149 169 191 128 47 30 303 34 29 54
249 164 169 171 180 150 192 233 239 229 255 235 232 240 240 242 224 250 256 251 217 208 165 193 221 206 320 324 326 336 316 128 161 141 151 157 158 141 141 141 144 139 154 158 160 138 182 189 202 183 141 72 54 47
205 152 164 172 194 154 243 276 230 250 221 240 243 236 243 245 235 239 257 231 228 232 219 228 253 250 189 295 302 287 282 232 182 152 163 160 155 144 141 149 136 164 180 176 196 159 216 212 235 133 145 122 98 89
133 162 121 145 162 204 246 242 253 307 292 270 270 260 239 239 240 234 235 228 231 225 210 242 254 266 255 271 286 328 338 356 34 21 276 140 151 154 172 156 166 172 185 190 169 175 170 92 102 77 109 113 84 92
162 153 149 161 207 224 253 213 239 221 230 247 241 242 247 238 245 218 225 218 250 247 255 259 267 243 273 284 261 312 322 331 347 236 201 151 157 165 167 152 188 187 174 148 152 143 94 114 105 81 112 93 105 116
90 146 207 206 201 242 229 213 223 253 252 227 200 250 236 221 197 215 231 207 204 218 228 242 246 209 290 279 241 221 232 242 279 188 163 177 142 152 160 159 151 151 151 120 129 129 163 131 143 140 103 110 111 112
183 206 210 229 203 204 223 215 208 218 229 189 218 236 212 211 209 215 222 196 183 191 201 255 196 134 237 252 249 203 223 200 247 149 188 160 135 123 141 140 122 127 153 133 120 167 223 127 115 129 128 94 95 98
225 214 201 216 210 214 222 230 211 210 207 164 227 215 142 190 241 225 177 167 157 158 174 205 155 108 223 237 200 180 249 2 327 36 20 148 158 160 163 171 164 160 162 136 176 204 154 122 115 120 111 101 83 113
249 240 215 228 270 288 249 249 216 297 210 166 261 150 146 238 182 88 86 32 122 134 142 134 136 167 150 145 284 347 328 1 321 263 232 202 116 110 130 153 81 85 95 84 294 248 71 118 133 127 127 114 141 177
261 284 244 228 226 223 297 273 257 250 341 84 186 227 186 359 51 22 83 121 101 130 130 138 175 143 74 9 343 355 317 273 237 203 128 111 102 94 80 81 74 77 74 41 9 76 90 117 131 143 137 138 152 181
240 254 235 218 84 80 325 17 39 26 344 331 348 33 44 41 9 351 343 349 156 173 142 140 151 187 128 123 245 235 244 208 185 150 150 146 147 142 115 115 137 113 101 84 47 51 93 120 118 130 151 147 156 111
241 334 176 87 76 49 27 6 60 53 20 5 72 85 68 15 342 333 332 324 187 237 167 151 169 174 169 176 214 201 170 183 177 197 198 157 139 129 117 107 119 123 110 108 104 91 89 99 109 133 150 120 157 178
144 195 80 78 104 145 143 97 65 75 20 28 72 102 88 48 9 21 22 7 13 338 51 67 94 142 164 195 222 176 123 85 57 61 58 114 124 112 113 128 125 115 112 116 124 118 145 158 139 145 151 176 144 119
66 34 125 121 143 159 156 172 121 93 41 46 54 65 77 34 27 18 14 4 15 72 45 57 34 74 97 156 97 76 59 57 49 50 40 40 35 89 116 113 133 120 130 140 131 140 154 138 155 163 166 157 120 131
126 130 132 131 145 167 171 162 136 118 81 44 29 23 36 77 282 334 351 345 359 356 73 125 165 72 90 19 96 105 87 86 84 74 69 61 42 5 321 137 151 162 142 164 133 152 143 140 138 143 160 177 151 128